Regional Weather Roundup
Issued by NWS Mt. Holly, NJ

Current Version | Previous Version | Text Only | Print | Product List | Glossary Off
Versions: 1 2 3 4 5 6 7 8 9 10 11 12 13 14 15 16 17 18 19 20 21 22 23 24 25 26 27 28

000
ASUS41 KPHI 250310
RWRPHI

REGIONAL WEATHER ROUNDUP
NATIONAL WEATHER SERVICE MOUNT HOLLY NJ
1100 PM EDT FRI OCT 24 2014

NOTE:  "FAIR" INDICATES FEW OR NO CLOUDS BELOW 12,000 FEET WITH NO
SIGNIFICANT WEATHER AND/OR OBSTRUCTIONS TO VISIBILITY.

 * = STATION DOES NOT REPORT PRECIPITATION (E.G. RAIN, SNOW, ETC.)
        OR FOG.

NJZ015>026-250400-
SOUTHERN NEW JERSEY

CITY           SKY/WX    TMP DP  RH WIND       PRES   REMARKS
POMONA         PTCLDY    55  40  56 W8        29.86R
RIO GRANDE*    PTCLDY    61  41  48 W9        29.90R
MILLVILLE      PTCLDY    49  42  77 W7        29.88R
WRIGHTSTOWN    PTCLDY    53  43  68 NW6       29.83S
MOUNT HOLLY    PTCLDY    54  42  64 CALM      29.86S
TRENTON        PTCLDY    57  39  51 NW6       29.86R

$$
NJZ001>014-250400-
NORTHERN NEW JERSEY

CITY           SKY/WX    TMP DP  RH WIND       PRES   REMARKS
SUSSEX         PTCLDY    56  39  53 CALM      29.87R
ANDOVER*         N/A     54  37  52 N6        29.87R
MORRISTOWN     CLEAR     59  39  47 NW5       29.86R
NEWARK         MOCLDY    59  40  49 NW12      29.84R
TETERBORO      CLEAR     57  39  51 NW6       29.83R
CALDWELL       CLEAR     57  37  47 NW6       29.86R
SOMERVILLE     CLEAR     57  36  45 NW7       29.84S
ALLAIRE*       CLEAR     55  39  54 NW8       29.84S
TOMS RIVER*    PTCLDY    46  43  87 CALM      29.86R

$$
PAZ043-044-047-054-055-060>062-066>071-250400-
EASTERN PENNSYLVANIA

CITY           SKY/WX    TMP DP  RH WIND       PRES   REMARKS
PHILADELPHIA   MOCLDY    59  37  44 NW8       29.88R
NORTH PHILA    PTCLDY    58  40  51 NW5       29.88S
BLUE BELL      PTCLDY    55  37  50 W3        29.87S
DOYLESTOWN     PTCLDY    54  40  59 N3        29.87R
QUAKERTOWN*    CLEAR     55  37  50 N6        29.89S
POTTSTOWN      PTCLDY    54  35  48 CALM      29.90R
LANCASTER      MOCLDY    51  38  60 W8        29.92R
COATESVILLE    MOCLDY    54  39  58 NW13      29.91R
READING        MOCLDY    55  36  48 W6        29.89R
ALLENTOWN      PTCLDY    55  37  50 NW3       29.89R
MOUNT POCONO   PTCLDY    48  32  53 NW9       29.88S
HAZLETON       PTCLDY    52  30  43 NW7       29.93S
WILKES BARRE   CLEAR     51  35  54 N5        29.91S

$$
DEZALL-MDZ008-012-015-019-020-250400-
DELAWARE AND EASTERN MARYLAND

CITY           SKY/WX    TMP DP  RH WIND       PRES   REMARKS
WILMINGTON     PTCLDY    54  38  54 NW10      29.90R
DOVER          CLEAR     57  39  50 W10G17    29.88R
GEORGETOWN     CLEAR     56  40  55 W5        29.91S
EASTON         CLEAR     55  42  62 CALM      29.96
PATUXENT       MOCLDY    55  36  48 W9        29.94R
OCEAN CITY     CLEAR     56  41  57 NW8       29.90S
WALLOPS ISLAND CLEAR     56  48  74 NW8       29.92S
CAMBRIDGE      CLEAR     55  43  62 W5        29.92S
SALISBURY      CLEAR     56  44  64 W5        29.92R

$$
PAZ001-021-NYZ056-072-MDZ011-DCZ001-250400-
OTHER NEARBY LOCATIONS

CITY           SKY/WX    TMP DP  RH WIND       PRES   REMARKS
HARRISBURG     MOCLDY    54  39  57 NW9       29.93R
STATE COLLEGE  CLEAR     48  38  67 SW6       29.97S
WILLIAMSPORT   PTCLDY    52  33  48 W9        29.93R
BINGHAMTON     PTCLDY    46  29  51 NW7       29.91S
NEW YORK CITY  CLEAR     58  40  51 NW7       29.86R
BALTIMORE      PTCLDY    53  36  52 W6        29.93S
WASHINGTON DC  PTCLDY    60  36  40 N7        29.96R

$$



USA.gov is the U.S. government's official web portal to all federal, state and local government web resources and services.